Погода в Нижнии Тимерсяны

Россия / Ульяновская область     54°32′59″N   47°45′43″E
В апреле 2022 года жителям России запретили посещать сайт meteo.paraplan.net по решению Генеральной прокуратуры. Аудитория сайта уменьшилась в 10 раз. Владельцы сайта не видят смысла в поддержке погодного сервера в таких условиях. Сайт будет закрыт в октябре.
темп.,
°C
ветер,
м/с
пор.,
м/с
влажн.,
%
обл.,
%
осадки,
мм/ч
давл.,
гПа
погр.,
м
25 сентября, вс
вс2501:00+10юз2770100 0.0 1010369
04:00+10ю357098 0.0 1010138
07:00+9ююз2571100 0.0 1009120
10:00+12ююв3357100 0.0 1008464
13:00+14ююв1249100 0.1 10061339
16:00+14ююв2250100 0.2 10051345
19:00+11ююз4670100 0.3 1005272
22:00+11ю347797 1.6 1005169
26 сентября, пн
пн2601:00+8зюз488671 0.3 1005364
04:00+8зюз4784100 0.3 1006479
07:00+7юз3686100 0.1 1006472
10:00+8юз3588100 0.8 1007365
13:00+9юз468290 0.4 1009608
16:00+10зюз457557 0.9 1010711
19:00+8юз358899 0.2 1011139
22:00+8зюз488563 0.4 1012359
27 сентября, вт
вт2701:00+7зюз5891100 0.1 1013371
04:00+7з4891100 0.3 1014313
07:00+7з4890100 0.1 1014310
10:00+9з467770 0.1 1015449
13:00+10зсз346994 0.1 1016651
16:00+11зсз236145 0.1 1016839
19:00+9ссз227627 0.0 101612
22:00+7ссв11845 0.0 101710
28 сентября, ср
ср2801:00+6с22875 0.0 101710
04:00+6св119196 0.0 101710
07:00+5св229353 0.0 101730
10:00+9всв458038 0.0 1017460
13:00+11в5564100 0.0 1016997
16:00+12в455884 0.0 10161142
19:00+9всв61074100 0.0 1016615
22:00+8в71180100 0.1 1016572
29 сентября, чт
чт2901:00+7в71184100 1.2 1016580
04:00+6в71286100 2.1 1016584
07:00+5в81385100 1.0 1016582
10:00+4в81384100 1.9 1016608
13:00+5в71279100 0.5 1016651
16:00+6в61173100 0.9 1016706
19:00+6всв71165100 0.0 1018675
22:00+5всв61076100 0.0 1019583